GW4220 Weather Reports


time (UTC)temp
C
wind
direction
speed
KPH
gust
KPH
rain 1hr
cm
rain 24hr
cm
rain mn
cm
humidity
%
barometer
mb
20260506143242 20 178 6.4 9.7 0.00 0.00 0.00 71 1011.6
20260506142741 20 172 3.2 3.2 0.00 0.00 0.00 71 1011.7
20260506142239 20 126 0.0 0.0 0.00 0.00 0.00 71 1011.6
20260506141736 20 166 6.4 6.4 0.00 0.00 0.00 71 1011.8
20260506141235 19 141 1.6 1.6 0.00 0.00 0.00 72 1012.0
20260506140732 19 161 6.4 12.9 0.00 0.00 0.00 72 1012.1
20260506140229 19 76 1.6 3.2 0.00 0.00 0.00 72 1011.9
20260506135725 19 244 6.4 11.3 0.00 0.00 0.00 72 1011.9
20260506135222 19 169 4.8 6.4 0.00 0.00 0.00 72 1011.7
20260506134719 19 171 6.4 6.4 0.00 0.00 0.00 72 1011.7
20260506134215 19 144 8.0 11.3 0.00 0.00 0.00 72 1011.6
20260506133712 19 161 14.5 17.7 0.00 0.00 0.00 72 1011.7
20260506133208 19 158 4.8 6.4 0.00 0.00 0.00 72 1011.6
20260506132706 19 182 11.3 14.5 0.00 0.00 0.00 73 1011.4
20260506132203 19 77 4.8 6.4 0.00 0.00 0.00 73 1011.4
20260506131701 18 145 12.9 16.1 0.00 0.00 0.00 73 1011.4
20260506131156 18 174 12.9 14.5 0.00 0.00 0.00 73 1011.2
20260506130653 18 173 6.4 6.4 0.00 0.00 0.00 73 1011.3
20260506130151 18 168 8.0 9.7 0.00 0.00 0.00 73 1011.2
20260506125649 18 178 9.7 11.3 0.00 0.00 0.00 73 1011.5
20260506125146 18 148 8.0 11.3 0.00 0.00 0.00 74 1011.3
20260506124645 18 181 8.0 9.7 0.00 0.00 0.00 74 1011.5
20260506124142 18 161 8.0 11.3 0.00 0.00 0.00 74 1011.6
20260506123639 18 163 4.8 9.7 0.00 0.00 0.00 74 1011.6
20260506123138 18 154 8.0 11.3 0.00 0.00 0.00 74 1011.7
20260506122634 18 191 8.0 11.3 0.00 0.00 0.00 74 1011.6
20260506122132 18 139 4.8 4.8 0.00 0.00 0.00 74 1011.7
20260506121629 18 179 11.3 12.9 0.00 0.00 0.00 74 1011.5
20260506121125 18 126 6.4 9.7 0.00 0.00 0.00 74 1011.6
20260506120624 18 186 6.4 9.7 0.00 0.00 0.00 75 1011.7
20260506120121 18 158 9.7 11.3 0.00 0.00 0.00 74 1012.1
20260506115619 18 163 4.8 4.8 0.00 0.00 0.00 74 1012.0
20260506115117 18 200 12.9 14.5 0.00 0.00 0.00 74 1011.6
20260506114614 18 166 8.0 9.7 0.00 0.00 0.00 74 1011.6
20260506114112 18 153 9.7 11.3 0.00 0.00 0.00 74 1011.6
20260506113610 18 173 9.7 11.3 0.00 0.00 0.00 75 1011.4
20260506113107 18 166 4.8 4.8 0.00 0.00 0.00 75 1011.6
20260506112603 18 173 9.7 11.3 0.00 0.00 0.00 75 1011.5
20260506112101 18 108 1.6 1.6 0.00 0.00 0.00 75 1011.5
20260506111558 18 151 9.7 12.9 0.00 0.00 0.00 74 1011.4
20260506111055 18 137 4.8 4.8 0.00 0.00 0.00 75 1011.5
20260506110553 17 134 12.9 14.5 0.00 0.00 0.00 75 1011.3
20260506110050 17 158 14.5 16.1 0.00 0.00 0.00 75 1011.5
20260506105546 17 151 6.4 9.7 0.00 0.00 0.00 75 1011.7
20260506105044 17 188 9.7 11.3 0.00 0.00 0.00 75 1011.7
20260506104542 17 154 4.8 6.4 0.00 0.00 0.00 74 1011.6
20260506104039 17 177 6.4 9.7 0.00 0.00 0.00 74 1011.4
20260506103536 17 144 8.0 11.3 0.00 0.00 0.00 74 1011.3
20260506103033 17 164 11.3 14.5 0.00 0.00 0.00 74 1011.4
20260506102531 17 163 6.4 11.3 0.00 0.00 0.00 73 1011.5
20260506102028 17 155 6.4 6.4 0.00 0.00 0.00 73 1011.6
20260506101525 17 179 8.0 11.3 0.00 0.00 0.00 73 1011.4
20260506101022 17 140 4.8 4.8 0.00 0.00 0.00 72 1011.2
20260506100520 17 172 6.4 6.4 0.00 0.00 0.00 72 1011.2
20260506100018 17 154 6.4 6.4 0.00 0.00 0.00 71 1011.1
20260506095517 18 148 6.4 6.4 0.00 0.00 0.00 71 1011.2
20260506095012 18 173 6.4 9.7 0.00 0.00 0.00 71 1011.3
20260506094510 18 108 3.2 4.8 0.00 0.00 0.00 70 1011.3
20260506094008 18 196 9.7 12.9 0.00 0.00 0.00 70 1011.3
20260506093506 18 225 3.2 3.2 0.00 0.00 0.00 69 1011.2
20260506093004 18 148 3.2 4.8 0.00 0.00 0.00 69 1011.2
20260506092501 18 193 3.2 6.4 0.00 0.00 0.00 69 1011.0
20260506091957 18 147 4.8 4.8 0.00 0.00 0.00 68 1011.0
20260506091456 18 178 8.0 11.3 0.00 0.00 0.00 68 1011.0
20260506090953 18 173 9.7 11.3 0.00 0.00 0.00 68 1011.0
20260506090451 18 175 9.7 11.3 0.00 0.00 0.00 67 1011.2
20260506085946 18 175 6.4 9.7 0.00 0.00 0.00 67 1011.2
20260506085444 18 126 1.6 1.6 0.00 0.00 0.00 67 1011.3
20260506084940 18 152 8.0 9.7 0.00 0.00 0.00 66 1011.2
20260506084437 18 145 9.7 12.9 0.00 0.00 0.00 66 1011.3
20260506083933 18 180 9.7 12.9 0.00 0.00 0.00 65 1011.3
20260506083430 18 160 8.0 11.3 0.00 0.00 0.00 65 1011.4
20260506082928 18 160 4.8 6.4 0.00 0.00 0.00 65 1011.3
20260506082425 19 149 4.8 6.4 0.00 0.00 0.00 65 1011.4
20260506081920 18 137 8.0 9.7 0.00 0.00 0.00 65 1011.4
20260506081419 19 163 3.2 3.2 0.00 0.00 0.00 64 1011.3
20260506080916 19 157 4.8 4.8 0.00 0.00 0.00 64 1011.5
20260506080412 19 202 4.8 6.4 0.00 0.00 0.00 64 1011.4
20260506073356 19 143 3.2 4.8 0.00 0.00 0.00 62 1011.5
20260506072853 19 166 4.8 4.8 0.00 0.00 0.00 61 1011.5
20260506072351 19 144 3.2 4.8 0.00 0.00 0.00 61 1011.3
20260506071848 20 176 3.2 3.2 0.00 0.00 0.00 60 1011.3
20260506071346 20 178 4.8 6.4 0.00 0.00 0.00 60 1011.5
20260506070843 20 140 1.6 1.6 0.00 0.00 0.00 60 1011.5
20260506070340 20 126 0.0 0.0 0.00 0.00 0.00 60 1011.6
20260506062317 20 127 1.6 1.6 0.00 0.00 0.00 59 1011.8
20260506061813 20 163 1.6 1.6 0.00 0.00 0.00 58 1011.7
20260506061310 20 129 3.2 3.2 0.00 0.00 0.00 58 1011.6
20260506060808 20 153 1.6 3.2 0.00 0.00 0.00 58 1011.7
20260506060306 20 158 4.8 9.7 0.00 0.00 0.00 58 1011.6
20260506051237 21 175 6.4 9.7 0.00 0.00 0.00 55 1012.0
20260506050735 21 169 4.8 4.8 0.00 0.00 0.00 55 1012.1
20260506050232 21 162 1.6 3.2 0.00 0.00 0.00 54 1012.1
20260506044723 21 174 11.3 14.5 0.00 0.00 0.00 54 1012.1
20260506044220 21 131 0.0 1.6 0.00 0.00 0.00 54 1012.1
20260506043718 21 150 6.4 9.7 0.00 0.00 0.00 53 1012.1
20260506043215 21 160 8.0 9.7 0.00 0.00 0.00 53 1012.2
20260506042714 21 157 6.4 9.7 0.00 0.00 0.00 52 1012.2
20260506042212 21 168 9.7 11.3 0.00 0.00 0.00 52 1012.0
20260506041710 21 158 11.3 12.9 0.00 0.00 0.00 52 1012.0
20260506041207 21 151 3.2 6.4 0.00 0.00 0.00 52 1011.9
20260506040704 21 208 6.4 11.3 0.00 0.00 0.00 52 1012.0
20260506040201 21 158 4.8 6.4 0.00 0.00 0.00 53 1012.0
20260506035658 21 167 3.2 4.8 0.00 0.00 0.00 53 1012.0
20260506035155 21 159 6.4 9.7 0.00 0.00 0.00 53 1012.0
20260506034651 21 174 9.7 11.3 0.00 0.00 0.00 53 1012.0
20260506034149 21 137 8.0 11.3 0.00 0.00 0.00 52 1011.9
20260506033646 21 163 6.4 9.7 0.00 0.00 0.00 52 1012.0
20260506033143 21 175 6.4 9.7 0.00 0.00 0.00 51 1012.2
20260506032640 21 179 6.4 9.7 0.00 0.00 0.00 50 1011.9
20260506032137 22 143 4.8 6.4 0.00 0.00 0.00 49 1011.9
20260506031634 22 180 9.7 12.9 0.00 0.00 0.00 48 1011.7
20260506031130 22 187 6.4 6.4 0.00 0.00 0.00 46 1011.8
20260506030629 23 178 6.4 9.7 0.00 0.00 0.00 45 1012.0
20260506030126 23 108 1.6 1.6 0.00 0.00 0.00 43 1011.6
20260506025623 23 177 8.0 11.3 0.00 0.00 0.00 43 1011.8
20260506025119 23 166 6.4 6.4 0.00 0.00 0.00 42 1011.7
20260506024617 23 150 4.8 4.8 0.00 0.00 0.00 42 1011.7
20260506024112 24 215 8.0 11.3 0.00 0.00 0.00 42 1011.6
20260506023609 23 247 3.2 3.2 0.00 0.00 0.00 42 1011.8
20260506023106 24 212 4.8 6.4 0.00 0.00 0.00 42 1011.6
20260506022604 23 254 3.2 4.8 0.00 0.00 0.00 41 1011.4
20260506022101 24 149 4.8 4.8 0.00 0.00 0.00 41 1011.6
20260506021559 24 107 8.0 12.9 0.00 0.00 0.00 40 1011.4
20260506021055 24 171 3.2 4.8 0.00 0.00 0.00 39 1011.4
20260506020553 24 129 1.6 1.6 0.00 0.00 0.00 38 1011.4
20260506020050 24 221 4.8 6.4 0.00 0.00 0.00 38 1011.4
20260506015548 24 146 1.6 1.6 0.00 0.00 0.00 38 1011.5
20260506015044 24 172 11.3 16.1 0.00 0.00 0.00 38 1011.5
20260506014542 25 141 6.4 6.4 0.00 0.00 0.00 37 1011.1
20260506014037 25 120 4.8 4.8 0.00 0.00 0.00 37 1011.4
20260506013536 25 145 6.4 9.7 0.00 0.00 0.00 37 1011.2
20260506013032 25 117 4.8 4.8 0.00 0.00 0.00 37 1011.2
20260506012528 25 202 6.4 9.7 0.00 0.00 0.00 37 1011.2
20260506012025 25 109 0.0 1.6 0.00 0.00 0.00 37 1011.2
20260506011523 25 199 9.7 12.9 0.00 0.00 0.00 36 1011.0
20260506011019 25 157 4.8 4.8 0.00 0.00 0.00 36 1011.1
20260506010514 25 144 6.4 11.3 0.00 0.00 0.00 36 1011.0
20260506010009 25 156 3.2 3.2 0.00 0.00 0.00 36 1010.9
20260506005507 25 145 4.8 4.8 0.00 0.00 0.00 35 1011.0
20260506005002 25 182 9.7 11.3 0.00 0.00 0.00 36 1010.7
20260506004500 25 156 6.4 9.7 0.00 0.00 0.00 36 1010.8
20260506003956 25 173 3.2 3.2 0.00 0.00 0.00 36 1010.8
20260506003453 25 136 1.6 3.2 0.00 0.00 0.00 36 1010.6
20260506002949 25 124 1.6 1.6 0.00 0.00 0.00 37 1010.7
20260506002445 25 183 8.0 9.7 0.00 0.00 0.00 36 1010.5
20260506001941 25 171 6.4 6.4 0.00 0.00 0.00 36 1010.5
20260506001438 25 192 8.0 11.3 0.00 0.00 0.00 36 1010.6
20260506000935 25 147 4.8 4.8 0.00 0.00 0.00 36 1010.5
20260506000433 25 228 8.0 9.7 0.00 0.00 0.00 36 1010.6
20260505235929 25 199 11.3 17.7 0.00 0.00 0.00 36 1010.4
20260505235427 25 143 1.6 1.6 0.00 0.00 0.00 36 1010.3
20260505234923 25 224 3.2 3.2 0.00 0.00 0.00 36 1010.2
20260505234422 25 144 6.4 9.7 0.00 0.00 0.00 35 1010.2
20260505233918 25 171 8.0 11.3 0.00 0.00 0.00 35 1010.2
20260505233416 26 277 8.0 11.3 0.00 0.00 0.00 35 1009.9
20260505232913 26 227 9.7 11.3 0.00 0.00 0.00 34 1010.1
20260505232411 26 142 8.0 9.7 0.00 0.00 0.00 34 1009.9
20260505231907 26 202 6.4 9.7 0.00 0.00 0.00 34 1009.8
20260505231405 26 164 3.2 3.2 0.00 0.00 0.00 34 1009.9
20260505230903 26 201 3.2 6.4 0.00 0.00 0.00 34 1009.7
20260505230400 26 247 8.0 11.3 0.00 0.00 0.00 34 1009.8
20260505225856 26 307 3.2 3.2 0.00 0.00 0.00 34 1009.9
20260505225354 26 254 9.7 14.5 0.00 0.00 0.00 33 1009.5
20260505224849 26 232 4.8 6.4 0.00 0.00 0.00 34 1009.5
20260505224347 26 181 3.2 4.8 0.00 0.00 0.00 35 1009.3
20260505223844 26 357 4.8 4.8 0.00 0.00 0.00 34 1009.3
20260505223341 26 238 6.4 6.4 0.00 0.00 0.00 34 1009.5
20260505222836 26 216 6.4 6.4 0.00 0.00 0.00 34 1009.3
20260505222333 26 234 9.7 14.5 0.00 0.00 0.00 33 1009.2
20260505221830 26 176 9.7 12.9 0.00 0.00 0.00 34 1009.1
20260505221327 26 232 4.8 4.8 0.00 0.00 0.00 35 1009.2
20260505220824 26 189 4.8 4.8 0.00 0.00 0.00 34 1009.0
20260505220321 26 149 8.0 11.3 0.00 0.00 0.00 34 1009.0
20260505215819 26 143 6.4 9.7 0.00 0.00 0.00 35 1008.8
20260505215316 27 256 11.3 17.7 0.00 0.00 0.00 34 1008.9
20260505214814 27 214 11.3 16.1 0.00 0.00 0.00 34 1008.9
20260505214311 27 168 4.8 6.4 0.00 0.00 0.00 34 1008.8
20260505213808 27 259 6.4 9.7 0.00 0.00 0.00 34 1008.9
20260505213306 27 174 3.2 4.8 0.00 0.00 0.00 34 1008.8
20260505212802 27 132 6.4 11.3 0.00 0.00 0.00 34 1009.0
20260505212259 27 141 4.8 4.8 0.00 0.00 0.00 34 1008.9
20260505211755 27 172 11.3 16.1 0.00 0.00 0.00 34 1008.9
20260505211253 28 198 9.7 12.9 0.00 0.00 0.00 33 1008.8
20260505210749 28 270 12.9 24.1 0.00 0.00 0.00 32 1008.6
20260505210246 28 178 9.7 12.9 0.00 0.00 0.00 32 1008.5
20260505205743 28 163 6.4 6.4 0.00 0.00 0.00 32 1008.4
20260505205242 28 219 11.3 12.9 0.00 0.00 0.00 32 1008.7
20260505204738 28 261 9.7 12.9 0.00 0.00 0.00 32 1008.3
20260505204236 28 241 4.8 9.7 0.00 0.00 0.00 33 1008.6
20260505203732 28 184 17.7 24.1 0.00 0.00 0.00 32 1008.5
20260505203229 28 154 12.9 17.7 0.00 0.00 0.00 33 1008.5
20260505202725 28 83 4.8 6.4 0.00 0.00 0.00 35 1008.6
20260505202222 28 234 14.5 20.9 0.00 0.00 0.00 33 1008.7
20260505201718 28 149 3.2 4.8 0.00 0.00 0.00 34 1008.7
20260505201216 28 220 11.3 12.9 0.00 0.00 0.00 32 1009.2
20260505200714 27 256 22.5 24.1 0.00 0.00 0.00 33 1009.0
20260505200211 27 164 9.7 16.1 0.00 0.00 0.00 34 1009.0
20260505195706 28 209 9.7 11.3 0.00 0.00 0.00 34 1009.0
20260505195204 27 237 16.1 17.7 0.00 0.00 0.00 35 1008.9
20260505194701 28 168 8.0 11.3 0.00 0.00 0.00 34 1009.0
20260505194157 27 160 20.9 27.4 0.00 0.00 0.00 35 1009.2
20260505193654 28 187 9.7 12.9 0.00 0.00 0.00 36 1009.3
20260505193151 28 227 8.0 11.3 0.00 0.00 0.00 37 1009.3
20260505192650 28 155 12.9 17.7 0.00 0.00 0.00 36 1009.5
20260505192147 28 186 11.3 12.9 0.00 0.00 0.00 36 1009.3
20260505191645 28 219 9.7 12.9 0.00 0.00 0.00 36 1009.2
20260505191143 27 264 11.3 17.7 0.00 0.00 0.00 37 1009.4
20260505190639 28 275 14.5 24.1 0.00 0.00 0.00 35 1009.7
20260505190138 28 253 14.5 20.9 0.00 0.00 0.00 35 1009.6
20260505185635 28 262 16.1 20.9 0.00 0.00 0.00 35 1009.6
20260505185131 28 182 9.7 16.1 0.00 0.00 0.00 37 1009.5
20260505184628 28 209 12.9 17.7 0.00 0.00 0.00 36 1009.7
20260505184125 27 229 20.9 24.1 0.00 0.00 0.00 36 1009.9
20260505183622 28 262 9.7 12.9 0.00 0.00 0.00 37 1009.9
20260505183120 28 194 9.7 14.5 0.00 0.00 0.00 36 1010.1
20260505182615 28 141 4.8 6.4 0.00 0.00 0.00 37 1010.1
20260505182112 27 189 6.4 9.7 0.00 0.00 0.00 38 1010.2
20260505181609 27 104 9.7 11.3 0.00 0.00 0.00 37 1010.3
20260505181107 27 246 9.7 12.9 0.00 0.00 0.00 37 1010.2
20260505180602 27 271 12.9 14.5 0.00 0.00 0.00 38 1010.0
20260505180100 27 232 16.1 17.7 0.00 0.00 0.00 37 1010.3
20260505175555 27 191 22.5 27.4 0.00 0.00 0.00 37 1010.3
20260505175052 27 219 27.4 40.2 0.00 0.00 0.00 36 1010.5
20260505174549 28 235 11.3 14.5 0.00 0.00 0.00 38 1010.3
20260505174045 27 256 9.7 16.1 0.00 0.00 0.00 39 1010.4
20260505173542 27 244 16.1 22.5 0.00 0.00 0.00 39 1010.5
20260505173039 27 239 12.9 22.5 0.00 0.00 0.00 41 1010.4
20260505172537 27 211 14.5 16.1 0.00 0.00 0.00 40 1010.5
20260505172033 26 278 19.3 24.1 0.00 0.00 0.00 39 1010.6
20260505171528 26 168 4.8 4.8 0.00 0.00 0.00 40 1010.6
20260505171025 27 285 8.0 11.3 0.00 0.00 0.00 40 1010.5
20260505170522 27 165 6.4 9.7 0.00 0.00 0.00 40 1010.8
20260505170018 26 248 11.3 14.5 0.00 0.00 0.00 39 1010.8
20260505165514 26 92 9.7 11.3 0.00 0.00 0.00 40 1010.7
20260505165009 26 163 6.4 11.3 0.00 0.00 0.00 39 1010.9
20260505164506 26 171 12.9 22.5 0.00 0.00 0.00 41 1011.1
20260505164004 26 130 3.2 3.2 0.00 0.00 0.00 42 1010.9
20260505163502 26 153 8.0 11.3 0.00 0.00 0.00 41 1011.2
20260505163002 26 196 6.4 6.4 0.00 0.00 0.00 41 1011.2
20260505162456 26 247 11.3 14.5 0.00 0.00 0.00 41 1011.3
20260505161953 26 203 6.4 9.7 0.00 0.00 0.00 40 1011.5
20260505161450 26 191 3.2 4.8 0.00 0.00 0.00 43 1011.4
20260505160947 26 256 9.7 12.9 0.00 0.00 0.00 43 1011.6
20260505160445 26 243 6.4 11.3 0.00 0.00 0.00 43 1011.9
20260505152922 25 260 8.0 9.7 0.00 0.00 0.00 47 1012.0
20260505152419 25 161 8.0 9.7 0.00 0.00 0.00 47 1012.1
20260505151919 25 94 4.8 6.4 0.00 0.00 0.00 46 1011.9
20260505151415 24 277 3.2 6.4 0.00 0.00 0.00 47 1012.0
20260505150913 24 171 6.4 14.5 0.00 0.00 0.00 48 1012.2
20260505150410 24 217 3.2 6.4 0.00 0.00 0.00 49 1012.4